Flag for U.S.A. Weather past 2 weeks in Key West, Florida, U.S.A.

76 °F


Feels Like: 76 °F
Forecast: 76 / 81 °F
Wind: 7 mph from East

Location: Key West International Airport

Current Time: Nov 30, 2015 at 11:41:13 PM

Latest Report: Nov 30, 2015 at 9:53 PM

Visibility: 10 mi

Pressure: 29.99 "Hg

Humidity: 88%

Dew point: 72 °F

Location of Key WestLocation

Historic Weather in Key West — Graph


Key West temperature yesterday

Maximum temperature yesterday: 79 °F (at 2:53 PM)
Minimum temperature yesterday: 72 °F (at 2:53 AM)
Average temperature yesterday: 75 °F

Past Weeks' High & Low Weather Summary

High84 °F (Nov 18, 12:53 PM)97% (Nov 16, 4:53 AM)30.23 "Hg (Nov 16, 4:53 AM)
Low69 °F (Nov 24, 4:53 AM)46% (Nov 24, 12:53 PM)29.83 "Hg (Nov 22, 4:01 AM)
Average77 °F81%30.02 "Hg
* Reported Nov 15 9:53 PM — Nov 30 9:53 PM, Key West, Weather by CustomWeather, © 2015

Note: Actual official high and low records may vary slightly from our data, if they occured in-between our weather recording intervals... More about our weather records


Key West weather history for previous 24 hours

Time TempWeatherWind HumidityBarometerVisibility
9:53 PM
Mon, Nov 30
76 °FClear.7 mph88%29.99 "Hg10 mi
8:53 PM76 °FClear.6 mph88%29.99 "Hg10 mi
7:53 PM76 °FClear.5 mph94%29.99 "Hg10 mi
6:53 PM76 °FClear.7 mph94%29.98 "Hg10 mi
5:53 PM78 °FClear.5 mph79%29.96 "Hg10 mi
4:53 PM79 °FPassing clouds.7 mph82%29.94 "Hg10 mi
3:53 PM80 °FScattered clouds.8 mph79%29.94 "Hg10 mi
2:53 PM81 °FCloudy.9 mph77%29.95 "Hg10 mi
2:01 PM80 °FBroken clouds.9 mph79%29.96 "Hg10 mi
1:53 PM80 °FBroken clouds.13 mph79%29.96 "Hg10 mi
12:53 PM80 °FScattered clouds.12 mph79%29.98 "Hg10 mi
11:53 AM79 °FPassing clouds.12 mph82%30.01 "Hg10 mi
10:53 AM78 °FPassing clouds.10 mph82%30.03 "Hg10 mi
9:53 AM77 °FPassing clouds.12 mph85%30.02 "Hg10 mi
8:53 AM76 °FPassing clouds.9 mph88%30.02 "Hg10 mi
7:53 AM75 °FPassing clouds.10 mph90%30.00 "Hg10 mi
6:53 AM73 °FScattered clouds.9 mph94%29.98 "Hg10 mi
5:53 AM73 °FPassing clouds.9 mph94%29.96 "Hg10 mi
4:53 AM73 °FOvercast.12 mph90%29.95 "Hg10 mi
3:53 AM73 °FPassing clouds.10 mph90%29.95 "Hg10 mi
2:53 AM73 °FClear.9 mph90%29.96 "Hg10 mi
1:53 AM73 °FPassing clouds.10 mph90%29.96 "Hg10 mi
12:53 AM74 °FPassing clouds.9 mph85%29.98 "Hg10 mi
11:53 PM
Sun, Nov 29
74 °FClear.10 mph88%29.98 "Hg10 mi
Weather by CustomWeather, © 2015

See weather overviewHow to use our weather pages